Regional Weather Roundup
Issued by NWS

Home | Current Version | Previous Version | Graphics & Text | Print | Product List | Glossary On
Versions: 1 2 3 4 5 6 7 8 9 10 11 12 13 14 15 16 17 18 19 20 21 22 23 24 25 26 27 28 29 30 31 32 33 34 35 36 37 38 39 40 41 42 43 44 45 46 47 48 49 50
000
ASUS43 KFSD 050802
RWRSD

WEATHER ROUNDUP FOR SOUTH DAKOTA
NATIONAL WEATHER SERVICE SIOUX FALLS SD
200 AM CST MON DEC 05 2016

NOTE: "FAIR" INDICATES FEW OR NO CLOUDS BELOW 12,000 FEET WITH NO
SIGNIFICANT WEATHER AND/OR OBSTRUCTIONS TO VISIBILITY.


SDZ001>005-009-010-012>017-050900-
NORTHWEST AND NORTH CENTRAL SOUTH DAKOTA

CITY           SKY/WX    TMP DP  RH WIND       PRES   REMARKS
BUFFALO          N/A     29  22  75 NW10      29.45S WCI  20
FAITH            N/A     27  21  78 SE15      29.50F WCI  15
MOBRIDGE       CLOUDY    29  23  78 SE10      29.55F WCI  20
$$

SDZ012>016-024>037-041>051-057-063-072>074-050900-
SOUTHWEST AND SOUTH CENTRAL SOUTH DAKOTA

CITY           SKY/WX    TMP DP  RH WIND       PRES   REMARKS
RAPID CTY ARPT CLOUDY    33  20  58 E7        29.50S WCI  27
PIERRE         PTCLDY    28  23  81 E5        29.55F WCI  23
CUSTER         CLOUDY    34  18  52 W8        29.52F WCI  27
ELLSWORTH AFB  PTCLDY    31  20  63 E5        29.49F WCI  27
PHILIP         PTCLDY    30  25  81 CALM      29.54F
PINE RIDGE     PTCLDY    33  24  69 VRB5      29.56F WCI  29
SPEARFISH      FAIR      41  25  52 SW14      29.48F
WINNER         FAIR      38  20  48 SW12      29.56F
$$

SDZ004>011-016>023-039-040-050900-
NORTHEAST SOUTH DAKOTA

CITY           SKY/WX    TMP DP  RH WIND       PRES   REMARKS
ABERDEEN       CLOUDY    30  26  85 SE9       29.66F WCI  22
WATERTOWN      CLOUDY    28  26  92 SE3       29.69F
SISSETON         N/A     35  25  66 S5        29.69S
$$

SDZ017-020-022-023-036>040-048>070-050900-
SOUTHEAST SOUTH DAKOTA

CITY           SKY/WX    TMP DP  RH WIND       PRES   REMARKS
SIOUX FALLS    CLOUDY    35  30  82 S6        29.72F
HURON          PTCLDY    32  29  88 SE10      29.63F WCI  24
CHAMBERLAIN    PTCLDY    32  29  88 SE7       29.59S WCI  26
MITCHELL       CLOUDY    34  29  82 SE12      29.65F WCI  25
YANKTON        CLEAR     30  25  80 E9        29.70F WCI  22
$$

ABBREVIATIONS USED IN REMARKS
   TC - TEMPERATURE IN CELSIUS
  WCI - WIND CHILL INDEX
   HX - HEAT INDEX
  VSB - VISIBILITY




USA.gov is the U.S. government's official web portal to all federal, state and local government web resources and services.